LVLRG SABE-SUMU

Flight info

Callsign LVLRG
Flight time 0h 40m
Altitude 15000
Route DORVO8 DORVO A305 CRR
Aircraft B350/L-SDF/C

Departure

Time 2026-04-26 21:33
Airport Aeroparque Jorge Newbery (SABE)

Arrival

Time 2026-04-26 22:13
Airport Carrasco General Cesáreo L. Berisso International Airport (SUMU)
Time Latitude Longitude Altitude Speed Heading
2026-04-26 21:15 -34.56223 -58.41318 22 ft 0 kts 33°
2026-04-26 21:29 -34.56228 -58.41311 26 ft 5 kts 184°
2026-04-26 21:29 -34.56280 -58.41310 22 ft 13 kts 142°
2026-04-26 21:29 -34.56346 -58.41202 23 ft 18 kts 124°
2026-04-26 21:29 -34.56417 -58.41073 23 ft 19 kts 123°
2026-04-26 21:30 -34.56490 -58.40944 22 ft 19 kts 125°
2026-04-26 21:30 -34.56506 -58.40847 21 ft 7 kts 77°
2026-04-26 21:30 -34.56483 -58.40799 21 ft 8 kts 63°
2026-04-26 21:30 -34.56475 -58.40778 20 ft 0 kts 70°
2026-04-26 21:32 -34.56452 -58.40709 19 ft 25 kts 62°
2026-04-26 21:32 -34.56375 -58.40753 19 ft 29 kts 301°
2026-04-26 21:32 -34.56111 -58.41233 22 ft 102 kts 303°
2026-04-26 21:32 -34.55606 -58.42011 253 ft 130 kts 304°
2026-04-26 21:33 -34.54987 -58.42868 771 ft 135 kts 303°
2026-04-26 21:33 -34.54216 -58.43573 1295 ft 157 kts 328°
2026-04-26 21:33 -34.52982 -58.43688 1482 ft 198 kts
2026-04-26 21:33 -34.51694 -58.42943 1930 ft 211 kts 31°
2026-04-26 21:34 -34.50539 -58.41868 2553 ft 207 kts 35°
2026-04-26 21:34 -34.49484 -58.40641 2941 ft 220 kts 54°
2026-04-26 21:34 -34.48915 -58.38883 3195 ft 229 kts 86°
2026-04-26 21:34 -34.48743 -58.36974 3704 ft 226 kts 89°
2026-04-26 21:35 -34.48601 -58.35083 4236 ft 225 kts 89°
2026-04-26 21:35 -34.48465 -58.33207 4757 ft 227 kts 89°
2026-04-26 21:35 -34.48325 -58.31311 5324 ft 224 kts 90°
2026-04-26 21:35 -34.48195 -58.29424 5930 ft 221 kts 91°
2026-04-26 21:36 -34.48055 -58.27569 6379 ft 226 kts 91°
2026-04-26 21:36 -34.47967 -58.26293 6791 ft 222 kts 91°
2026-04-26 21:36 -34.47777 -58.23860 7521 ft 220 kts 97°
2026-04-26 21:36 -34.48022 -58.22014 7790 ft 223 kts 119°
2026-04-26 21:37 -34.48673 -58.20342 8291 ft 217 kts 130°
2026-04-26 21:37 -34.49454 -58.18788 8777 ft 216 kts 133°
2026-04-26 21:37 -34.50275 -58.17276 9326 ft 214 kts 134°
2026-04-26 21:37 -34.51120 -58.15780 9759 ft 220 kts 135°
2026-04-26 21:38 -34.52055 -58.14187 9703 ft 244 kts 135°
2026-04-26 21:38 -34.53092 -58.12497 9580 ft 253 kts 136°
2026-04-26 21:38 -34.54202 -58.10811 9459 ft 258 kts 138°
2026-04-26 21:38 -34.55349 -58.09141 9471 ft 257 kts 139°
2026-04-26 21:39 -34.56509 -58.07481 9382 ft 260 kts 139°
2026-04-26 21:39 -34.57599 -58.05683 9260 ft 272 kts 122°
2026-04-26 21:39 -34.58097 -58.03447 9628 ft 275 kts 104°
2026-04-26 21:39 -34.58360 -58.01193 10148 ft 265 kts 104°
2026-04-26 21:40 -34.58657 -57.99020 10620 ft 258 kts 108°
2026-04-26 21:40 -34.58913 -57.97628 11027 ft 250 kts 110°
2026-04-26 21:40 -34.59307 -57.95646 11754 ft 237 kts 111°
2026-04-26 21:40 -34.59710 -57.93714 12235 ft 238 kts 111°
2026-04-26 21:41 -34.60126 -57.91737 12610 ft 245 kts 111°
2026-04-26 21:41 -34.60698 -57.89003 12893 ft 261 kts 111°
2026-04-26 21:41 -34.61022 -57.87559 12867 ft 273 kts 113°
2026-04-26 21:41 -34.61584 -57.85306 12893 ft 285 kts 114°
2026-04-26 21:42 -34.62202 -57.82969 12882 ft 294 kts 115°
2026-04-26 21:42 -34.62875 -57.80612 13034 ft 296 kts 114°
2026-04-26 21:42 -34.63560 -57.77310 12922 ft 311 kts 107°
2026-04-26 21:42 -34.63974 -57.74720 12930 ft 315 kts 105°
2026-04-26 21:43 -34.64229 -57.72942 12838 ft 320 kts 104°
2026-04-26 21:43 -34.64584 -57.70263 12825 ft 321 kts 103°
2026-04-26 21:43 -34.64971 -57.67608 12894 ft 318 kts 107°
2026-04-26 21:43 -34.65539 -57.65020 12907 ft 317 kts 111°
2026-04-26 21:44 -34.66125 -57.62441 12913 ft 318 kts 110°
2026-04-26 21:44 -34.66670 -57.59869 12898 ft 319 kts 109°
2026-04-26 21:44 -34.67207 -57.57252 12911 ft 319 kts 109°
2026-04-26 21:44 -34.67734 -57.54638 12920 ft 319 kts 108°
2026-04-26 21:45 -34.68215 -57.52005 12928 ft 320 kts 107°
2026-04-26 21:45 -34.68664 -57.49354 12936 ft 321 kts 106°
2026-04-26 21:45 -34.69085 -57.46685 12946 ft 321 kts 104°
2026-04-26 21:45 -34.69332 -57.43977 12935 ft 324 kts 97°
2026-04-26 21:46 -34.69475 -57.41245 12947 ft 324 kts 97°
2026-04-26 21:46 -34.69621 -57.38513 12939 ft 325 kts 97°
2026-04-26 21:46 -34.69774 -57.35768 12939 ft 325 kts 97°
2026-04-26 21:46 -34.69926 -57.33027 12943 ft 325 kts 97°
2026-04-26 21:47 -34.70072 -57.30288 12956 ft 325 kts 97°
2026-04-26 21:47 -34.70215 -57.27543 12965 ft 325 kts 97°
2026-04-26 21:47 -34.70357 -57.24797 12958 ft 326 kts 97°
2026-04-26 21:47 -34.70537 -57.22050 12940 ft 326 kts 99°
2026-04-26 21:48 -34.70766 -57.19310 12955 ft 326 kts 99°
2026-04-26 21:48 -34.70978 -57.16574 12954 ft 326 kts 99°
2026-04-26 21:48 -34.71255 -57.13840 12900 ft 327 kts 101°
2026-04-26 21:48 -34.71538 -57.11101 12913 ft 326 kts 101°
2026-04-26 21:49 -34.71808 -57.08409 12951 ft 325 kts 101°
2026-04-26 21:49 -34.72079 -57.05680 12958 ft 325 kts 100°
2026-04-26 21:49 -34.72407 -57.02968 12950 ft 324 kts 103°
2026-04-26 21:49 -34.72787 -57.00274 12935 ft 324 kts 103°
2026-04-26 21:50 -34.73168 -56.97569 12923 ft 324 kts 103°
2026-04-26 21:50 -34.73560 -56.94865 12916 ft 324 kts 104°
2026-04-26 21:50 -34.73965 -56.92178 12926 ft 323 kts 104°
2026-04-26 21:50 -34.74373 -56.89489 12911 ft 324 kts 104°
2026-04-26 21:51 -34.74782 -56.86796 12897 ft 324 kts 104°
2026-04-26 21:51 -34.75196 -56.84097 12905 ft 324 kts 104°
2026-04-26 21:51 -34.75617 -56.81410 12905 ft 324 kts 105°
2026-04-26 21:51 -34.76046 -56.78723 12899 ft 324 kts 105°
2026-04-26 21:52 -34.76483 -56.76039 12888 ft 324 kts 105°
2026-04-26 21:52 -34.76932 -56.73357 12908 ft 323 kts 105°
2026-04-26 21:52 -34.77334 -56.70665 12913 ft 324 kts 102°
2026-04-26 21:52 -34.77674 -56.67954 12896 ft 324 kts 102°
2026-04-26 21:53 -34.78005 -56.65247 12894 ft 324 kts 102°
2026-04-26 21:53 -34.78332 -56.62532 12907 ft 324 kts 102°
2026-04-26 21:53 -34.78657 -56.59823 12921 ft 323 kts 102°
2026-04-26 21:53 -34.78980 -56.57117 12901 ft 324 kts 101°
2026-04-26 21:54 -34.79303 -56.54405 12895 ft 324 kts 101°
2026-04-26 21:54 -34.79626 -56.51690 12908 ft 323 kts 101°
2026-04-26 21:54 -34.79951 -56.48987 12917 ft 323 kts 101°
2026-04-26 21:54 -34.80279 -56.46282 12904 ft 324 kts 102°
2026-04-26 21:55 -34.80610 -56.43571 12901 ft 323 kts 102°
2026-04-26 21:55 -34.80886 -56.40857 12869 ft 326 kts 95°
2026-04-26 21:55 -34.80898 -56.38087 12670 ft 326 kts 91°
2026-04-26 21:55 -34.80874 -56.35329 12346 ft 326 kts 91°
2026-04-26 21:56 -34.80888 -56.32568 12021 ft 326 kts 93°
2026-04-26 21:56 -34.80944 -56.29857 11660 ft 324 kts 94°
2026-04-26 21:56 -34.81039 -56.27111 11213 ft 325 kts 96°
2026-04-26 21:56 -34.81527 -56.24456 10611 ft 321 kts 122°
2026-04-26 21:57 -34.82934 -56.22487 10103 ft 300 kts 155°
2026-04-26 21:57 -34.84805 -56.21719 9651 ft 276 kts 182°
2026-04-26 21:57 -34.86683 -56.21534 9317 ft 266 kts 184°
2026-04-26 21:57 -34.88513 -56.21389 8930 ft 262 kts 185°
2026-04-26 21:58 -34.90320 -56.21238 8538 ft 258 kts 184°
2026-04-26 21:58 -34.92108 -56.21066 8075 ft 260 kts 182°
2026-04-26 21:58 -34.93867 -56.20346 7573 ft 281 kts 154°
2026-04-26 21:58 -34.95209 -56.18565 7246 ft 291 kts 129°
2026-04-26 21:59 -34.96156 -56.16405 6999 ft 290 kts 118°
2026-04-26 21:59 -34.96929 -56.14149 6716 ft 287 kts 118°
2026-04-26 21:59 -34.97685 -56.11913 6438 ft 284 kts 118°
2026-04-26 21:59 -34.98438 -56.09683 6095 ft 285 kts 118°
2026-04-26 22:00 -34.99188 -56.07448 5751 ft 285 kts 118°
2026-04-26 22:00 -34.99864 -56.05213 5489 ft 285 kts 112°
2026-04-26 22:00 -35.00269 -56.02789 5118 ft 291 kts 100°
2026-04-26 22:00 -35.00319 -56.00336 4781 ft 295 kts 89°
2026-04-26 22:01 -35.00034 -55.97863 4491 ft 294 kts 81°
2026-04-26 22:01 -34.99674 -55.95438 4289 ft 289 kts 81°
2026-04-26 22:01 -34.99288 -55.93042 4016 ft 287 kts 76°
2026-04-26 22:01 -34.98587 -55.90766 3707 ft 286 kts 62°
2026-04-26 22:02 -34.97563 -55.88709 3473 ft 282 kts 50°
2026-04-26 22:02 -34.96310 -55.86888 3242 ft 278 kts 41°
2026-04-26 22:02 -34.94886 -55.85334 3004 ft 272 kts 30°
2026-04-26 22:02 -34.93361 -55.84064 2988 ft 260 kts 26°
2026-04-26 22:03 -34.91869 -55.82914 3040 ft 249 kts 24°
2026-04-26 22:03 -34.90390 -55.81867 3009 ft 241 kts 18°
2026-04-26 22:03 -34.88863 -55.81182 3025 ft 229 kts
2026-04-26 22:03 -34.87342 -55.80666 3015 ft 225 kts
2026-04-26 22:04 -34.85827 -55.80216 2991 ft 223 kts
2026-04-26 22:04 -34.84325 -55.79877 3015 ft 215 kts 356°
2026-04-26 22:04 -34.82851 -55.79664 3026 ft 212 kts 355°
2026-04-26 22:04 -34.81397 -55.79588 2990 ft 206 kts 346°
2026-04-26 22:05 -34.80034 -55.79880 3029 ft 192 kts 331°
2026-04-26 22:05 -34.78811 -55.80410 3098 ft 186 kts 327°
2026-04-26 22:05 -34.77620 -55.80991 3043 ft 187 kts 326°
2026-04-26 22:05 -34.76440 -55.81621 3049 ft 183 kts 322°
2026-04-26 22:06 -34.75385 -55.82423 3050 ft 176 kts 313°
2026-04-26 22:06 -34.74417 -55.83332 3033 ft 176 kts 311°
2026-04-26 22:06 -34.73560 -55.84344 3034 ft 163 kts 292°
2026-04-26 22:06 -34.73429 -55.85561 2890 ft 143 kts 253°
2026-04-26 22:07 -34.73884 -55.86623 2640 ft 143 kts 238°
2026-04-26 22:07 -34.74499 -55.87554 2411 ft 134 kts 237°
2026-04-26 22:07 -34.75022 -55.88404 2244 ft 116 kts 238°
2026-04-26 22:07 -34.75488 -55.89166 2059 ft 109 kts 238°
2026-04-26 22:08 -34.75959 -55.89896 1805 ft 108 kts 238°
2026-04-26 22:08 -34.76413 -55.90592 1714 ft 104 kts 238°
2026-04-26 22:08 -34.76816 -55.91293 1691 ft 99 kts 242°
2026-04-26 22:08 -34.77183 -55.91992 1679 ft 96 kts 242°
2026-04-26 22:09 -34.77560 -55.92652 1652 ft 94 kts 240°
2026-04-26 22:09 -34.77939 -55.93298 1642 ft 94 kts 240°
2026-04-26 22:09 -34.78310 -55.93947 1582 ft 93 kts 240°
2026-04-26 22:09 -34.78678 -55.94606 1441 ft 96 kts 241°
2026-04-26 22:10 -34.79071 -55.95269 1296 ft 97 kts 237°
2026-04-26 22:10 -34.79487 -55.95919 1181 ft 98 kts 239°
2026-04-26 22:10 -34.79862 -55.96620 1078 ft 99 kts 240°
2026-04-26 22:10 -34.80290 -55.97289 940 ft 102 kts 236°
2026-04-26 22:11 -34.80727 -55.97961 800 ft 102 kts 239°
2026-04-26 22:11 -34.81145 -55.98669 680 ft 104 kts 237°
2026-04-26 22:11 -34.81591 -55.99373 556 ft 104 kts 239°
2026-04-26 22:11 -34.82016 -56.00079 424 ft 103 kts 240°
2026-04-26 22:12 -34.82429 -56.00757 259 ft 97 kts 242°
2026-04-26 22:12 -34.82809 -56.01389 126 ft 88 kts 242°
2026-04-26 22:12 -34.83147 -56.01944 94 ft 69 kts 241°
2026-04-26 22:12 -34.83390 -56.02356 83 ft 53 kts 231°
2026-04-26 22:13 -34.83585 -56.02659 74 ft 37 kts 228°
2026-04-26 22:13 -34.83718 -56.02820 73 ft 17 kts 185°
2026-04-26 22:13 -34.83758 -56.02826 69 ft 0 kts 218°
2026-04-26 22:13 -34.83766 -56.02830 72 ft 7 kts 202°
2026-04-26 22:14 -34.83876 -56.02848 66 ft 23 kts 166°
2026-04-26 22:14 -34.84032 -56.02746 70 ft 24 kts 147°
2026-04-26 22:14 -34.84043 -56.02734 70 ft 0 kts 121°